Regional Weather Roundup
Issued by NWS

Home | Current Version | Previous Version | Graphics & Text | Print | Product List | Glossary On
Versions: 1 2 3 4 5 6 7 8 9 10 11 12 13 14 15 16 17 18 19 20 21 22 23 24 25 26 27 28 29 30 31 32 33 34 35 36 37 38 39 40 41 42 43 44 45 46 47 48 49 50
432
ASUS45 KBOU 232107
RWRCO

WEATHER ROUNDUP FOR COLORADO
NATIONAL WEATHER SERVICE DENVER/BOULDER CO
300 PM MDT THU MAR 23 2017

NOTE: "FAIR" INDICATES FEW OR NO CLOUDS BELOW 12000 FEET WITH NO
SIGNIFICANT WEATHER AND/OR OBSTRUCTIONS TO VISIBILITY.

COZ001>005-013-030-031-232200-
...NORTHWEST COLORADO...

CITY           SKY/WX    TMP DP  RH WIND       PRES   REMARKS
CRAIG          FAIR      59  17  19 SW18G29   29.69S
HAYDEN         PTSUNNY   54  16  22 SW15G25   29.71R
MEEKER         FAIR      56  23  27 S15G26    29.72R
MOUNT WERNER   NOT AVBL
STEAMBOAT SPGS CLOUDY    53  17  24 S10       29.71R
WALDEN         NOT AVBL
$$

COZ006>008-011-232200-
...WEST CENTRAL VALLEYS...

CITY           SKY/WX    TMP DP  RH WIND       PRES   REMARKS
GRAND JUNCTION FAIR      58  31  35 N8        29.70F
MONTROSE       LGT RAIN  45  37  73 S9        29.79R
EAGLE          MOSUNNY   52  30  43 W15       29.73S
RIFLE          FAIR      57  30  35 W17       29.71S
DELTA          CLOUDY    55  30  39 SW6       29.75S
NUCLA          CLOUDY    46  36  66 S5        29.81F
$$

COZ017>023-064>068-232200-
...SOUTHWEST COLORADO...

CITY           SKY/WX    TMP DP  RH WIND       PRES   REMARKS
DURANGO        LGT RAIN  39  37  92 SW6       29.80F
CORTEZ         CLOUDY    43  36  76 W16G22    29.81S
PAGOSA SPRINGS PTSUNNY   42  36  79 SW14G22   29.80R
TELLURIDE      NOT AVBL
WOLF CREEK PAS LGT SNOW  27  27 100 SW23G35   29.88R WCI  12
$$

COZ009-010-012-014-032>034-037-058>063-232200-
...CENTRAL COLORADO...

CITY           SKY/WX    TMP DP  RH WIND       PRES   REMARKS
ASPEN          PTSUNNY   49  26  41 NW16G24   29.71S
BUENA VISTA    PTSUNNY   56   8  14 SW17G24   29.70F
COPPER MTN     CLOUDY    36   5  27 SW18G43   29.88S
BERTHOUD PASS  CLOUDY    32  21  64 SW9       29.89S WCI  24
COTTONWOOD PAS PTSUNNY   43  19  39 W9G17     29.78F
GUNNISON       FAIR      46  26  45 S21G28    29.75S
KREMMLING      FAIR      63  19  19 W17G24    29.70S
LEADVILLE      CLOUDY    37  16  42 S14G29    29.80R
MONARCH PASS   CLOUDY    34  10  37 SW32G43   29.94F WCI  20
SALIDA         PTSUNNY   59   9  13 S13G23    29.75F
SUNLIGHT       SNOW      28  27  93 SW8G20    29.88S VSB 1/4 WCI  20
WILKERSON PASS PTSUNNY   45   3  18 S13G31    29.85F
$$

COZ069>075-232200-
...SAN LUIS VALLEY/SANGRE DE CRISTO MOUNTAINS...

CITY           SKY/WX    TMP DP  RH WIND       PRES   REMARKS
ALAMOSA        PTSUNNY   58  15  18 S21G30    29.68F
LA VETA PASS   NOT AVBL
SAGUACHE       CLOUDY    55  14  19 S20G25    29.71F
$$

COZ035-036-038>040-232200-
...NORTHERN COLORADO FRONT RANGE...

CITY           SKY/WX    TMP DP  RH WIND       PRES   REMARKS
DENVER INTL AP FAIR      76   8   7 S23G43    29.55F
DMNS CITY PARK   N/A     71   9   9 SW13G26   29.55F
AURORA         MOSUNNY   73   4   6 SW24G35   29.55F
FRONT RANGE AP MOSUNNY   77  10   8 S29G39    29.58F
ERIE MUNI ARPT FAIR      75   5   6 S21G37    29.53F
BOULDER MUN AP FAIR      73  14  10 SW23G29   29.53S
CENTENNIAL     FAIR      73   4   7 SW31G46   29.58F
BROOMFIELD     PTSUNNY   73  12   9 S17G36    29.56F
FORT COLLINS   FAIR      72  15  11 NW7       29.53F
LONGMONT       FAIR      74  11   9 W13G32    29.53F
$$

COZ041-046-047-076>085-087-088-232200-
...PIKES PEAK/PALMER DIVIDE AND SOUTHERN FOOTHILLS...

CITY           SKY/WX    TMP DP  RH WIND       PRES   REMARKS
COLO. SPRINGS  FAIR      72  10   9 SW23G33   29.61F
A. F. ACADEMY  FAIR      67   6   9 S21G31    29.62F
SCHRIEVER AFB  FAIR      72  12  10 SW26G32   29.62F
ELLICOTT         N/A    N/A N/A N/A SW16G28   29.60F
FALCON         FAIR      68   9  10 SW20G33   29.66F
FORT CARSON    FAIR      72  10   9 SW24G36   29.58F
LIMON          FAIR      75  15  10 S16G22    29.59F
MONUMENT HILL  FAIR      63  12  14 SW16G33   29.66F
TRINIDAD       FAIR      76   7   7 S41G56    29.58F
$$

COZ042>045-048>051-090-091-232200-
...NORTHEAST COLORADO...

CITY           SKY/WX    TMP DP  RH WIND       PRES   REMARKS
GREELEY ARPT   FAIR      77  13   9 S8        29.52F
AKRON          FAIR      80   8   6 SW21G35   29.55F
BURLINGTON     FAIR      80  32  17 S16G25    29.57F
WRAY           NOT AVBL
STERLING       FAIR      79  28  15 N6        29.51F
HOLYOKE        FAIR      79  37  22 SE10G20   29.53F
FORT MORGAN    FAIR      79  20  11 E15G26    29.53F
$$

COZ086-089-092>099-232200-
...SOUTHEAST COLORADO...

CITY           SKY/WX    TMP DP  RH WIND       PRES   REMARKS
PUEBLO         FAIR      80  10   7 SW22G36   29.51F
LA JUNTA       FAIR      85  15   7 S32G47    29.50F
LAMAR          FAIR      87  15   7 S36G47    29.49F
SPRINGFIELD      N/A     81  27  14 SW25G46   29.60F
$$




USA.gov is the U.S. government's official web portal to all federal, state and local government web resources and services.